Location: Kelshall
(52.0000°N, 0.0500°W)
Time: 11:43:00
(UTC+00:00)

Okean 1 Rocket - Pass Details

Date: 17 January 2021
Orbit: 605 x 635 km, 82.5° (Epoch: 05 March)

Event Time Altitude Azimuth Distance (km) Brightness Sun altitude
Exits shadow 05:15:34 53° 2° (N) 782 3.5 -24.5°
Drops below altitude 10° 05:19:03 10° 10° (N) 2,030 5.8 -24.0°
Sets 05:21:18 0° 11° (N) 2,940 6.6 -23.6°
